Weather History for Bend, OR

Change the Weather History Date:

Saturday, December 22, 2012

  Actual Average (KRDM) Record (KRDM)
Temperature  
Mean Temperature 36 °F 30 °F  
Max Temperature 39 °F 40 °F 58 °F (1989)
Min Temperature 32 °F 20 °F -18 °F (1990)
Degree Days  
Heating Degree Days 30 35  
Month to date heating degree days 756  
Since 1 July heating degree days 2530  
Cooling Degree Days 0 0  
Month to date cooling degree days 0  
Year to date cooling degree days 222  
Moisture  
Dew Point 21 °F    
Average Humidity 57    
Maximum Humidity 75    
Minimum Humidity 41    
Precipitation  
Precipitation 0.00 in 0.04 in 1.39 in (1964)
Month to date precipitation 0.85  
Year to date precipitation 8.59  
Sea Level Pressure  
Sea Level Pressure 29.63 in    
Wind  
Wind Speed 8 mph (SSW)    
Max Wind Speed 29 mph    
Max Gust Speed 36 mph    
Visibility 10 miles    
Events Rain , Thunderstorm    
T = Trace of Precipitation, MM = Missing Value Source: NWS Daily Summary

Daily Weather History Graph

Daily Weather History Graph

Search for Another Location

Airport:

Trip Planner

Search our weather history database for the weather conditions in past years. The results will help you decide how hot, cold, wet, or windy it might be!

Date:

Astronomy

Dec. 22, 2012 Rise Set
Actual Time 7:37 AM PST 4:30 PM PST
Civil Twilight 7:04 AM PST 5:03 PM PST
Nautical Twilight 6:27 AM PST 5:39 PM PST
Astronomical Twilight 5:52 AM PST 6:15 PM PST
Moon 12:56 PM PST (12/22) 2:21 AM PST (12/22)
Length of Visible Light 9h 59m
Length of Day
8h 52m
Waxing Gibbous, 74% of the Moon is Illuminated
Dec 22
Waxing Gibbous
Dec 28
Full
Jan 4
Last Quarter
Jan 11
New
Jan 18
First Quarter

Hourly Weather History & Observations

Time (PST) Temp. Windchill Dew Point Humidity Pressure Visibility Wind Dir Wind Speed Gust Speed Precip Events Conditions
12:15 AM 32.0 °F - 23.0 °F 69% 29.65 in 10.0 mi Calm Calm - N/A   Clear
12:35 AM 32.0 °F - 23.0 °F 69% 29.63 in 10.0 mi Calm Calm - N/A   Clear
12:55 AM 32.0 °F - 23.0 °F 69% 29.62 in 10.0 mi Calm Calm - N/A   Clear
1:15 AM 32.0 °F 28.7 °F 23.0 °F 69% 29.63 in 10.0 mi SSW 3.5 mph - N/A   Clear
1:55 AM 32.0 °F 28.7 °F 23.0 °F 69% 29.61 in 10.0 mi South 3.5 mph - N/A   Clear
2:15 AM 32.0 °F - 23.0 °F 69% 29.58 in 10.0 mi Calm Calm - N/A   Clear
2:55 AM 33.8 °F - 23.0 °F 65% 29.57 in 10.0 mi Calm Calm - N/A   Clear
3:15 AM 32.0 °F - 23.0 °F 69% 29.56 in 10.0 mi Calm Calm - N/A   Clear
3:55 AM 32.0 °F 27.5 °F 24.8 °F 75% 29.55 in 10.0 mi SW 4.6 mph - N/A   Clear
4:15 AM 37.4 °F 30.3 °F 24.8 °F 60% 29.54 in 10.0 mi South 10.4 mph 17.3 mph N/A   Clear
4:35 AM 37.4 °F 30.3 °F 26.6 °F 65% 29.53 in 10.0 mi SSE 10.4 mph 16.1 mph N/A   Partly Cloudy
4:55 AM 37.4 °F 30.8 °F 26.6 °F 65% 29.52 in 10.0 mi SSE 9.2 mph - N/A   Partly Cloudy
5:15 AM 35.6 °F 29.2 °F 26.6 °F 70% 29.52 in 10.0 mi SSW 8.1 mph - N/A   Clear
5:35 AM 35.6 °F 29.9 °F 26.6 °F 70% 29.53 in 10.0 mi SSW 6.9 mph - N/A   Partly Cloudy
5:55 AM 35.6 °F 28.6 °F 26.6 °F 70% 29.52 in 10.0 mi South 9.2 mph - N/A   Partly Cloudy
6:15 AM 37.4 °F 30.8 °F 26.6 °F 65% 29.50 in 10.0 mi South 9.2 mph - N/A   Clear
6:35 AM 37.4 °F 30.8 °F 26.6 °F 65% 29.50 in 10.0 mi South 9.2 mph - N/A   Clear
6:55 AM 37.4 °F 27.2 °F 23.0 °F 56% 29.51 in 10.0 mi South 19.6 mph 24.2 mph N/A   Clear
7:15 AM 37.4 °F 27.8 °F 23.0 °F 56% 29.52 in 10.0 mi South 17.3 mph 26.5 mph N/A   Clear
7:35 AM 37.4 °F 29.8 °F 24.8 °F 60% 29.51 in 10.0 mi South 11.5 mph - N/A   Clear
7:55 AM 37.4 °F 27.5 °F 23.0 °F 56% 29.52 in 10.0 mi SSW 18.4 mph 23.0 mph N/A   Clear
8:15 AM 37.4 °F 30.3 °F 23.0 °F 56% 29.52 in 10.0 mi SSW 10.4 mph 16.1 mph N/A   Clear
8:35 AM 35.6 °F 29.2 °F 24.8 °F 65% 29.55 in 10.0 mi NNW 8.1 mph - N/A   Partly Cloudy
8:55 AM 35.6 °F 30.7 °F 24.8 °F 65% 29.55 in 10.0 mi WNW 5.8 mph - N/A   Partly Cloudy
9:15 AM 35.6 °F - 24.8 °F 65% 29.56 in 10.0 mi Calm Calm - N/A   Partly Cloudy
9:35 AM 35.6 °F 31.7 °F 24.8 °F 65% 29.56 in 10.0 mi SE 4.6 mph - N/A   Clear
9:55 AM 37.4 °F 31.4 °F 23.0 °F 56% 29.57 in 10.0 mi SSW 8.1 mph - N/A   Clear
10:15 AM 37.4 °F 29.8 °F 23.0 °F 56% 29.58 in 10.0 mi South 11.5 mph - N/A   Clear
10:35 AM 39.2 °F 31.2 °F 23.0 °F 52% 29.59 in 10.0 mi SSW 13.8 mph - N/A   Clear
10:55 AM 37.4 °F 28.2 °F 23.0 °F 56% 29.59 in 10.0 mi SW 16.1 mph 23.0 mph N/A   Clear
11:15 AM 37.4 °F 26.6 °F 21.2 °F 52% 29.58 in 10.0 mi SW 21.9 mph 28.8 mph N/A   Clear
11:35 AM 37.4 °F 26.9 °F 21.2 °F 52% 29.59 in 10.0 mi SW 20.7 mph 31.1 mph N/A   Clear
11:55 AM 37.4 °F 26.9 °F 23.0 °F 56% 29.59 in 10.0 mi SW 20.7 mph 31.1 mph N/A   Clear
12:15 PM 37.4 °F 25.6 °F 23.0 °F 56% 29.60 in 10.0 mi SW 26.5 mph 33.4 mph N/A Rain Light Rain
12:35 PM 37.4 °F 26.1 °F 23.0 °F 56% 29.60 in 10.0 mi SW 24.2 mph 31.1 mph N/A   Clear
1:15 PM 37.4 °F 26.9 °F 23.0 °F 56% 29.61 in 10.0 mi SSW 20.7 mph 26.5 mph N/A   Clear
1:35 PM 35.6 °F 24.0 °F 23.0 °F 60% 29.61 in 10.0 mi SW 23.0 mph 27.6 mph N/A   Clear
1:55 PM 37.4 °F 25.2 °F 19.4 °F 48% 29.61 in 10.0 mi SW 28.8 mph 35.7 mph N/A   Clear
2:15 PM 37.4 °F 26.6 °F 17.6 °F 45% 29.60 in 10.0 mi SW 21.9 mph 29.9 mph N/A   Clear
2:35 PM 37.4 °F 26.9 °F 17.6 °F 45% 29.61 in 10.0 mi SW 20.7 mph 32.2 mph N/A   Clear
2:55 PM 37.4 °F 28.9 °F 15.8 °F 41% 29.62 in 10.0 mi SW 13.8 mph 32.2 mph N/A   Clear
3:15 PM 37.4 °F 27.5 °F 15.8 °F 41% 29.63 in 10.0 mi SW 18.4 mph 31.1 mph N/A   Clear
3:35 PM 35.6 °F 26.2 °F 15.8 °F 44% 29.64 in 10.0 mi SSW 15.0 mph 25.3 mph N/A   Clear
3:55 PM 35.6 °F 26.6 °F 15.8 °F 44% 29.65 in 10.0 mi SW 13.8 mph 23.0 mph N/A   Clear
4:15 PM 35.6 °F 29.2 °F 17.6 °F 48% 29.66 in 10.0 mi South 8.1 mph 17.3 mph N/A   Clear
4:35 PM 35.6 °F - 17.6 °F 48% 29.66 in 10.0 mi Calm Calm - N/A   Clear
4:55 PM 33.8 °F 27.0 °F 17.6 °F 52% 29.67 in 10.0 mi SSE 8.1 mph - N/A   Clear
5:15 PM 33.8 °F 27.0 °F 17.6 °F 52% 29.68 in 10.0 mi South 8.1 mph - N/A Thunderstorm Clear
5:35 PM 33.8 °F 25.3 °F 15.8 °F 48% 29.68 in 10.0 mi SSW 11.5 mph 18.4 mph N/A Thunderstorm Clear
5:55 PM 33.8 °F 25.8 °F 15.8 °F 48% 29.68 in 10.0 mi South 10.4 mph 17.3 mph N/A   Clear
6:15 PM 33.8 °F 27.0 °F 15.8 °F 48% 29.69 in 10.0 mi South 8.1 mph - N/A Thunderstorm Clear
6:35 PM 33.8 °F 24.3 °F 15.8 °F 48% 29.69 in 10.0 mi SSW 13.8 mph 20.7 mph N/A   Clear
6:55 PM 32.0 °F 23.0 °F 15.8 °F 51% 29.69 in 10.0 mi SSW 11.5 mph 18.4 mph N/A   Clear
7:15 PM 32.0 °F 24.8 °F 15.8 °F 51% 29.70 in 10.0 mi South 8.1 mph - N/A   Clear
7:35 PM 32.0 °F 22.5 °F 15.8 °F 51% 29.71 in 10.0 mi SSW 12.7 mph 20.7 mph N/A   Clear
7:55 PM 32.0 °F 21.6 °F 15.8 °F 51% 29.72 in 10.0 mi SSW 15.0 mph - N/A   Clear
8:15 PM 32.0 °F 22.1 °F 15.8 °F 51% 29.73 in 10.0 mi SSW 13.8 mph - N/A   Clear
8:35 PM 32.0 °F 21.2 °F 17.6 °F 55% 29.73 in 10.0 mi SSW 16.1 mph 21.9 mph N/A   Clear
8:55 PM 32.0 °F 20.1 °F 17.6 °F 55% 29.73 in 10.0 mi SSW 19.6 mph 25.3 mph N/A   Clear
9:15 PM 32.0 °F 19.8 °F 17.6 °F 55% 29.73 in 10.0 mi SSW 20.7 mph 25.3 mph N/A   Clear
9:35 PM 32.0 °F 23.6 °F 17.6 °F 55% 29.74 in 10.0 mi SSW 10.4 mph - N/A   Clear
9:55 PM 32.0 °F 24.2 °F 17.6 °F 55% 29.76 in 10.0 mi South 9.2 mph - N/A   Clear
10:15 PM 32.0 °F 23.6 °F 17.6 °F 55% 29.76 in 10.0 mi South 10.4 mph 17.3 mph N/A   Clear
10:35 PM 32.0 °F 24.8 °F 17.6 °F 55% 29.77 in 10.0 mi South 8.1 mph - N/A   Clear
10:55 PM 32.0 °F 26.4 °F 17.6 °F 55% 29.77 in 10.0 mi South 5.8 mph - N/A   Clear
11:15 PM 32.0 °F 24.2 °F 17.6 °F 55% 29.77 in 10.0 mi SSW 9.2 mph 16.1 mph N/A   Clear
11:35 PM 32.0 °F 25.6 °F 17.6 °F 55% 29.78 in 10.0 mi South 6.9 mph - N/A   Clear
11:55 PM 32.0 °F 26.4 °F 17.6 °F 55% 29.78 in 10.0 mi South 5.8 mph - N/A   Clear